Flag for Canada Weather past 2 weeks in Prince George, British Columbia, Canada

Now
72 °F

Passing clouds.


Feels Like: 77 °F
Forecast: 58 / 77 °F
Wind: 7 mph from West

Location: Prince George

Current Time: Jun 30, 2015 at 10:32:04 AM

Latest Report: Jun 30, 2015 at 10:00 AM


Visibility: 9 mi

Pressure: 30.08 "Hg

Humidity: 53%

Dew point: 54 °F

Location of Prince GeorgeLocation

Historic Weather in Prince George — Graph

°F

Prince George temperature yesterday

Maximum temperature yesterday: 77 °F (at 11:00 AM)
Minimum temperature yesterday: 57 °F (at 1:00 AM)
Average temperature yesterday: 68 °F

Past Weeks' High & Low Weather Summary

 TemperatureHumidityPressure
High84 °F (Jun 28, 3:00 PM)100% (Jun 18, 1:00 AM)30.22 "Hg (Jun 18, 1:00 AM)
Low36 °F (Jun 21, 2:54 AM)25% (Jun 28, 3:00 PM)29.84 "Hg (Jun 18, 6:00 PM)
Average60 °F69%30.03 "Hg
* Reported Jun 15 9:00 AM — Jun 30 9:00 AM, Prince George, Weather by CustomWeather, © 2015

Note: Actual official high and low records may vary slightly from our data, if they occured in-between our weather recording intervals... More about our weather records

Advertising

Prince George weather history for previous 24 hours

 ConditionsComfort  
Time TempWeatherWind HumidityBarometerVisibility
9:00 AM
Tue, Jun 30
70 °FSunny.7 mph57%30.08 "Hg9 mi
8:00 AM66 °FSunny.9 mph78%30.08 "Hg9 mi
7:00 AM61 °FSunny.6 mph94%30.08 "Hg9 mi
6:00 AM57 °FSunny.8 mph94%30.06 "Hg9 mi
5:00 AM57 °FPassing clouds.5 mph94%30.06 "Hg9 mi
4:00 AM57 °FClear.8 mph94%30.03 "Hg9 mi
3:00 AM59 °FClear.5 mph94%30.02 "Hg9 mi
2:00 AM61 °FPassing clouds.8 mph88%30.01 "Hg9 mi
1:00 AM64 °FOvercast.12 mph78%30.00 "Hg9 mi
12:00 AM64 °FOvercast.12 mph83%29.99 "Hg9 mi
11:00 PM
Mon, Jun 29
66 °FOvercast.9 mph78%29.98 "Hg9 mi
10:04 PM66 °FOvercast.7 mph78%29.97 "Hg9 mi
9:00 PM66 °FOvercast.7 mph78%29.96 "Hg9 mi
8:00 PM68 °FOvercast.14 mph73%29.94 "Hg9 mi
7:00 PM72 °FMore clouds than sun.10 mph69%29.93 "Hg9 mi
6:03 PM73 °FOvercast.9 mph69%29.93 "Hg9 mi
5:00 PM75 °FLight rain. Cloudy.10 mph65%29.94 "Hg9 mi
4:00 PM75 °FLight rain. Partly sunny.7 mph61%29.94 "Hg9 mi
3:54 PM75 °FLight rain. Overcast.7 mph61%29.94 "Hg9 mi
3:00 PM77 °FOvercast.6 mph54%29.94 "Hg9 mi
2:00 PM77 °FOvercast.6 mph54%29.94 "Hg9 mi
1:00 PM77 °FOvercast.5 mph51%29.94 "Hg9 mi
12:00 PM77 °FScattered clouds.5 mph47%29.95 "Hg9 mi
11:00 AM77 °FSunny.5 mph47%29.96 "Hg9 mi
10:00 AM75 °FPartly sunny.2 mph54%29.98 "Hg9 mi
Weather by CustomWeather, © 2015

See weather overviewHow to use our weather pages